Hourly Data Report for November 22, 2017

CARBERRY CS
MANITOBA

49°54'20.900" N
99°21'26.800" W
383.50 m
5010547
71170
WZE

Download Data

Hourly Data (November 2017)
Hourly Data Report for November 22, 2017
TIME
LST
Temp Definition
°C
Dew Point Definition
°C
Rel Hum Definition
%
Precip. Amount Definition
mm

Wind Dir Definition
10's deg

Wind Spd Definition
km/h
Visibility Definition
km
Stn Press Definition
kPa
Hmdx Definition


Wind Chill Definition


Weather Definition


00:00 -14.7 -17.1 82 0.0 24 8   97.72   -20 LegendNANA
01:00 -15.6 -17.9 83 0.0 22 7   97.62   -21 LegendNANA
02:00 -16.6 -18.5 85 0.0 20 12   97.48   -24 LegendNANA
03:00 -17.1 -19.5 82 0.0 21 10   97.42   -24 LegendNANA
04:00 -15.8 -18.4 81 0.0 22 9   97.33   -22 LegendNANA
05:00 -14.6 -17.2 80 0.0 21 9   97.25   -20 LegendNANA
06:00 -13.7 -16.8 77 0.0 19 12   97.14   -20 LegendNANA
07:00 -12.7 -15.7 78 0.0 19 8   97.03   -18 LegendNANA
08:00 -11.4 -14.5 78 0.0 16 8   96.89   -16 LegendNANA
09:00 -10.8 -12.9 84 0.0 14 12   96.77   -17 LegendNANA
10:00 -9.7 -12.1 83 0.0 15 12   96.77   -16 LegendNANA
11:00 -8.4 -11.0 81 0.0 15 11   96.72   -14 LegendNANA
12:00 -7.7 -10.4 81 0.0 16 8   96.63   -12 LegendNANA
13:00 -7.0 -9.9 80 0.0 20 8   96.59   -11 LegendNANA
14:00 -6.1 -9.2 78 0.0 30 7   96.63   -9 LegendNANA
15:00 -6.3 -9.5 78 0.0 31 11   96.71   -11 LegendNANA
16:00 -6.6 -9.7 79 0.0 28 11   96.74   -12 LegendNANA
17:00 -7.5 -10.3 80 0.0 24 7   96.76   -11 LegendNANA
18:00 -7.6 -10.4 80 0.0 23 9   96.75   -12 LegendNANA
19:00 -7.9 -10.3 83 0.0 23 12   96.83   -13 LegendNANA
20:00 -9.1 -11.4 83 0.0 23 12   96.83   -15 LegendNANA
21:00 -9.5 -12.1 82 0.0 25 14   96.82   -16 LegendNANA
22:00 -9.5 -12.2 81 0.0 25 17   96.73   -17 LegendNANA
23:00 -9.3 -11.8 82 0.0 26 20   96.75   -17 LegendNANA

Notes on Data Quality.

Legend

  • E = Estimated
  • M = Missing
  • NA = Not Available*
  • [empty] = Indicates an unobserved value
Date modified: